Location: Newark
(42.7133°N, 87.7910°W)
Time: 10:43:13
(UTC+00:00)

Vanguard 2 - Visible Passes

Search period start: 21 October 2019 00:00
Search period end: 31 October 2019 00:00
Orbit: 554 x 2937 km, 32.9° (Epoch: 21 October)

Date Brightness Start Highest point End Pass type
(mag) Time Alt. Az. Time Alt. Az. Time Alt. Az.
21 Oct 9.7 00:50:04 10° WSW 00:59:00 51° SSE 01:05:38 31° ESE visible
21 Oct 10.1 02:58:00 10° W 03:07:01 49° SW 03:07:01 49° SW visible
21 Oct 11.5 05:07:45 10° W 05:08:24 12° W 05:08:24 12° W visible
22 Oct 9.7 01:07:46 10° WSW 01:16:50 53° S 01:22:12 36° ESE visible
22 Oct 10.3 03:15:58 10° W 03:23:35 41° SW 03:23:35 41° SW visible
22 Oct 9.7 23:18:39 10° SW 23:25:28 39° SSE 23:36:17 10° E visible
23 Oct 9.7 01:25:33 10° WSW 01:34:43 52° S 01:38:47 42° SE visible
23 Oct 10.6 03:34:00 10° W 03:40:10 33° WSW 03:40:10 33° WSW visible
23 Oct 9.6 23:36:09 10° SW 23:43:09 43° SSE 23:53:59 11° E visible
24 Oct 9.8 01:43:22 10° WSW 01:52:37 50° S 01:55:23 45° SSE visible
24 Oct 10.9 03:52:10 10° W 03:56:46 25° WSW 03:56:46 25° WSW visible
24 Oct 9.5 23:53:46 10° WSW 00:00:55 46° S 00:10:39 15° ESE visible
25 Oct 9.9 02:01:16 10° W 02:10:32 47° S 02:12:01 45° S visible
25 Oct 11.1 04:10:30 10° W 04:13:25 19° WSW 04:13:25 19° WSW visible
26 Oct 9.5 00:11:30 10° WSW 00:18:44 47° S 00:27:19 19° ESE visible
26 Oct 10.1 02:19:14 10° W 02:28:27 42° SSW 02:28:43 42° S visible
26 Oct 11.4 04:29:10 10° WSW 04:30:06 12° WSW 04:30:06 12° WSW visible
27 Oct 9.6 00:29:16 10° WSW 00:36:36 46° S 00:44:03 22° ESE visible
27 Oct 10.3 02:37:19 10° W 02:45:27 36° SSW 02:45:27 36° SSW visible
28 Oct 9.7 00:47:07 10° WSW 00:54:29 43° S 01:00:50 25° SE visible
28 Oct 10.5 02:55:34 10° WSW 03:02:14 29° SW 03:02:14 29° SW visible
29 Oct 9.8 01:05:03 10° WSW 01:12:23 39° S 01:17:42 27° SE visible
29 Oct 10.8 03:14:05 10° WSW 03:19:06 22° SW 03:19:06 22° SW visible
29 Oct 9.4 23:15:32 10° WSW 23:21:15 40° S 23:30:21 10° ESE visible
30 Oct 10.0 01:23:04 10° WSW 01:30:17 34° SSW 01:34:38 26° SSE visible
30 Oct 11.1 03:33:06 10° WSW 03:36:03 16° SW 03:36:03 16° SW visible
30 Oct 9.5 23:33:21 10° WSW 23:39:06 38° S 23:48:11 10° ESE visible
